sat.trackr.live / text

‹ back to catalog

STARLINK-30138

NORAD 57605 · 2023-119D

PAYLOAD ACTIVE UNKNOWN

§ Identity

Operator
Country
US
Launch date
2023-08-11
Launch site
AFETR
Launch vehicle
Mass (kg)
RCS (m²)

Purposes: comms

External: N2YO · Heavens-Above · Gunter

§ Orbital elements

Epoch: 2026-05-24T23:41:56.200992Z

Period
94.27 min
Inclination
43.0024°
Eccentricity
0.0001344
Mean motion
15.27574270 rev/d
Perigee alt
482.1 km
Apogee alt
484.0 km
Semi-major
6,861.2 km
B*
-7.6705e-5
RAAN
10.8228°
Arg perigee
264.0751°
Mean anomaly
95.9948°
Rev number
15,475

§ Raw data

STARLINK-301381 57605U 23119D   26144.98745603 -.00002372  00000+0 -76705-4 0  99922 57605  43.0024  10.8228 0001344 264.0751  95.9948 15.27574270154752

JSON: /api/v1/satellites/57605 · /tle

For live sub-satellite position, see the globe view (requires WebGL).

§ Visibility from observer

Set your observer location to see the next 7 days of passes ≥ 10°. The values pass through the URL so the page stays shareable.

No JS? Fill the form by hand. The geolocation button needs JavaScript.